Madison, MN

2:12 AM CST on February 10, 2016 (GMT -0600)
Madison-Lac Qui Parle County

Weather History for KDXX - September, 2012

Change the Weather History Date:

Thursday, September 20, 2012

  Actual Average (KAQP) Record (KAQP)
Temperature  
Mean Temperature 52 °F -  
Max Temperature 66 °F 68 °F 84 °F (2005)
Min Temperature 39 °F 43 °F 30 °F (2006)
Degree Days  
Heating Degree Days 12    
Growing Degree Days 2 (Base 50)    
Moisture  
Dew Point 29 °F    
Average Humidity 40    
Maximum Humidity 70    
Minimum Humidity 19    
Precipitation  
Precipitation 0.00 in - - ()
Sea Level Pressure  
Sea Level Pressure 29.94 in    
Wind  
Wind Speed 9 mph (WNW)    
Max Wind Speed 18 mph    
Max Gust Speed 25 mph    
Visibility 10 miles    
Events Rain    
Averages and records for this station are not official NWS values.
T = Trace of Precipitation, MM = Missing Value Source: NWS Daily Summary

Daily Weather History Graph

Daily Weather History Graph

Search for Another Location

Airport or City:

Trip Planner

Search our weather history database for the weather conditions in past years. The results will help you decide how hot, cold, wet, or windy it might be!

Date:

Astronomy

Sep. 20, 2012 Rise Set
Actual Time 7:10 AM CDT 7:25 PM CDT
Civil Twilight 6:40 AM CDT 7:54 PM CDT
Nautical Twilight 6:06 AM CDT 8:28 PM CDT
Astronomical Twilight 5:30 AM CDT 9:04 PM CDT
Moon 12:45 PM CDT (9/20) 10:11 PM CDT (9/20)
Length of Visible Light 13h 13m
Length of Day
12h 15m
Waxing Crescent, 27% of the Moon is Illuminated
Sep 20
Waxing Crescent
Sep 22
First Quarter
Sep 29
Full
Oct 8
Last Quarter
Oct 15
New

Hourly Weather History & Observations

Time (CDT) Temp. Windchill Dew Point Humidity Pressure Visibility Wind Dir Wind Speed Gust Speed Precip Events Conditions
12:14 AM 48.2 °F - 30.2 °F 50% 29.92 in 10.0 mi WNW 8.1 mph - N/A   Clear
12:34 AM 48.2 °F - 28.4 °F 46% 29.92 in 10.0 mi WNW 8.1 mph - N/A   Clear
12:53 AM 48.2 °F - 28.4 °F 46% 29.92 in 10.0 mi WNW 8.1 mph - N/A   Clear
1:14 AM 48.2 °F - 28.4 °F 46% 29.92 in 10.0 mi WNW 8.1 mph - N/A   Clear
1:33 AM 48.2 °F - 28.4 °F 46% 29.92 in 10.0 mi WNW 9.2 mph - N/A   Clear
1:54 AM 48.2 °F - 30.2 °F 50% 29.92 in 10.0 mi West 8.1 mph - N/A   Clear
2:14 AM 46.4 °F 42.4 °F 30.2 °F 53% 29.93 in 10.0 mi WNW 8.1 mph - N/A   Clear
2:33 AM 46.4 °F 42.4 °F 30.2 °F 53% 29.93 in 10.0 mi WNW 8.1 mph - N/A   Clear
2:54 AM 46.4 °F 42.9 °F 30.2 °F 53% 29.93 in 10.0 mi WNW 6.9 mph - N/A   Clear
3:14 AM 46.4 °F 43.5 °F 30.2 °F 53% 29.93 in 10.0 mi West 5.8 mph - N/A   Clear
3:33 AM 44.6 °F 42.2 °F 30.2 °F 57% 29.93 in 10.0 mi WNW 4.6 mph - N/A   Clear
3:54 AM 44.6 °F 41.4 °F 30.2 °F 57% 29.94 in 10.0 mi WNW 5.8 mph - N/A   Clear
4:14 AM 46.4 °F 44.3 °F 30.2 °F 53% 29.94 in 10.0 mi NW 4.6 mph - N/A   Clear
4:33 AM 44.6 °F 41.4 °F 30.2 °F 57% 29.94 in 10.0 mi WNW 5.8 mph - N/A   Clear
4:54 AM 44.6 °F 40.2 °F 30.2 °F 57% 29.95 in 10.0 mi West 8.1 mph - N/A   Clear
5:14 AM 44.6 °F 40.7 °F 30.2 °F 57% 29.95 in 10.0 mi WNW 6.9 mph - N/A   Clear
5:33 AM 42.8 °F 38.6 °F 30.2 °F 61% 29.96 in 10.0 mi WNW 6.9 mph - N/A   Clear
5:54 AM 44.6 °F 40.2 °F 30.2 °F 57% 29.96 in 10.0 mi West 8.1 mph - N/A   Clear
6:14 AM 42.8 °F 39.3 °F 30.2 °F 61% 29.97 in 10.0 mi West 5.8 mph - N/A   Clear
6:33 AM 39.2 °F 33.6 °F 28.4 °F 65% 29.97 in 10.0 mi West 8.1 mph - N/A   Clear
6:54 AM 39.2 °F 33.6 °F 28.4 °F 65% 29.98 in 10.0 mi West 8.1 mph - N/A   Clear
7:13 AM 39.2 °F 34.2 °F 28.4 °F 65% 29.98 in 10.0 mi West 6.9 mph - N/A   Clear
7:34 AM 39.2 °F 34.2 °F 30.2 °F 70% 29.99 in 10.0 mi West 6.9 mph - N/A   Clear
7:54 AM 39.2 °F 35.0 °F 30.2 °F 70% 29.99 in 10.0 mi West 5.8 mph - N/A   Clear
8:13 AM 44.6 °F 40.2 °F 30.2 °F 57% 29.99 in 10.0 mi West 8.1 mph - N/A   Clear
8:34 AM 46.4 °F 42.4 °F 32.0 °F 57% 29.98 in 10.0 mi West 8.1 mph - N/A   Clear
8:54 AM 48.2 °F - 32.0 °F 54% 29.98 in 10.0 mi West 9.2 mph - N/A   Clear
9:13 AM 50.0 °F - 32.0 °F 50% 29.98 in 10.0 mi West 8.1 mph - N/A   Clear
9:34 AM 53.6 °F - 33.8 °F 47% 29.98 in 10.0 mi WNW 10.4 mph - N/A   Clear
9:54 AM 53.6 °F - 32.0 °F 44% 29.99 in 10.0 mi WNW 10.4 mph - N/A   Clear
10:13 AM 55.4 °F - 32.0 °F 41% 29.98 in 10.0 mi WNW 10.4 mph - N/A   Clear
10:54 AM 57.2 °F - 30.2 °F 36% 29.98 in 10.0 mi WNW 8.1 mph - N/A   Clear
11:13 AM 60.8 °F - 30.2 °F 31% 29.98 in 10.0 mi WNW 11.5 mph 16.1 mph N/A   Clear
11:34 AM 60.8 °F - 28.4 °F 29% 29.98 in 10.0 mi NW 15.0 mph 19.6 mph N/A   Clear
11:54 AM 62.6 °F - 28.4 °F 27% 29.98 in 10.0 mi NW 9.2 mph 20.7 mph N/A   Clear
12:13 PM 62.6 °F - 26.6 °F 26% 29.98 in 10.0 mi NW 18.4 mph 25.3 mph N/A   Clear
12:34 PM 62.6 °F - 26.6 °F 26% 29.98 in 10.0 mi NW 13.8 mph 25.3 mph N/A   Clear
12:54 PM 64.4 °F - 26.6 °F 24% 29.98 in 10.0 mi NW 13.8 mph 21.9 mph N/A   Clear
1:13 PM 64.4 °F - 26.6 °F 24% 29.98 in 10.0 mi NW 15.0 mph - N/A   Clear
1:34 PM 64.4 °F - 26.6 °F 24% 29.97 in 10.0 mi NW 13.8 mph 18.4 mph N/A   Clear
1:54 PM 64.4 °F - 26.6 °F 24% 29.96 in 10.0 mi NW 17.3 mph 23.0 mph N/A   Clear
2:13 PM 64.4 °F - 26.6 °F 24% 29.95 in 10.0 mi NNW 15.0 mph 23.0 mph N/A   Clear
2:34 PM 64.4 °F - 26.6 °F 24% 29.94 in 10.0 mi NNW 10.4 mph 20.7 mph N/A   Clear
2:54 PM 64.4 °F - 24.8 °F 22% 29.94 in 10.0 mi North 11.5 mph 18.4 mph N/A   Clear
3:13 PM 66.2 °F - 26.6 °F 23% 29.94 in 10.0 mi NW 15.0 mph 20.7 mph N/A   Clear
3:34 PM 66.2 °F - 26.6 °F 23% 29.92 in 10.0 mi NW 9.2 mph - N/A   Clear
3:54 PM 66.2 °F - 26.6 °F 23% 29.92 in 10.0 mi NW 8.1 mph - N/A   Clear
4:13 PM 64.4 °F - 24.8 °F 22% 29.92 in 10.0 mi NW 10.4 mph 19.6 mph N/A   Clear
4:34 PM 64.4 °F - 24.8 °F 22% 29.92 in 10.0 mi NW 9.2 mph 18.4 mph N/A   Clear
4:54 PM 66.2 °F - 24.8 °F 21% 29.91 in 10.0 mi West 10.4 mph 16.1 mph N/A   Clear
5:13 PM 66.2 °F - 24.8 °F 21% 29.91 in 10.0 mi West 15.0 mph - N/A   Clear
5:34 PM 64.4 °F - 24.8 °F 22% 29.90 in 10.0 mi West 11.5 mph - N/A   Clear
5:54 PM 64.4 °F - 24.8 °F 22% 29.90 in 10.0 mi WNW 11.5 mph - N/A   Clear
6:13 PM 64.4 °F - 21.2 °F 19% 29.90 in 10.0 mi WNW 9.2 mph - N/A   Clear
6:34 PM 62.6 °F - 21.2 °F 20% 29.90 in 10.0 mi WNW 8.1 mph - N/A   Clear
6:54 PM 62.6 °F - 24.8 °F 24% 29.90 in 10.0 mi West 5.8 mph - N/A   Scattered Clouds
7:13 PM 60.8 °F - 26.6 °F 27% 29.90 in 10.0 mi West 3.5 mph - N/A   Mostly Cloudy
7:34 PM 59.0 °F - 26.6 °F 29% 29.90 in 10.0 mi West 3.5 mph - N/A   Overcast
7:54 PM 57.2 °F - 26.6 °F 31% 29.90 in 7.0 mi West 3.5 mph - N/A   Overcast
8:14 PM 57.2 °F - 26.6 °F 31% 29.90 in 10.0 mi West 3.5 mph - N/A   Overcast
8:33 PM 60.8 °F - 26.6 °F 27% 29.91 in 10.0 mi NW 8.1 mph 20.7 mph N/A Rain Light Rain
8:54 PM 60.8 °F - 26.6 °F 27% 29.91 in 10.0 mi West 9.2 mph - N/A   Overcast
9:13 PM 60.8 °F - 30.2 °F 31% 29.90 in 10.0 mi NNW 9.2 mph - N/A Rain Light Rain
9:33 PM 59.0 °F - 30.2 °F 34% 29.90 in 10.0 mi West 10.4 mph - N/A   Mostly Cloudy
9:54 PM 59.0 °F - 30.2 °F 34% 29.89 in 10.0 mi West 9.2 mph - N/A   Scattered Clouds
10:14 PM 57.2 °F - 32.0 °F 38% 29.89 in 10.0 mi WNW 8.1 mph - N/A   Mostly Cloudy
10:33 PM 57.2 °F - 33.8 °F 41% 29.89 in 10.0 mi NW 8.1 mph - N/A   Overcast
10:54 PM 57.2 °F - 35.6 °F 44% 29.89 in 10.0 mi NW 6.9 mph - N/A   Mostly Cloudy
11:14 PM 55.4 °F - 35.6 °F 47% 29.89 in 10.0 mi West 4.6 mph - N/A   Mostly Cloudy
11:33 PM 55.4 °F - 35.6 °F 47% 29.89 in 10.0 mi NNW 5.8 mph - N/A   Mostly Cloudy
11:54 PM 55.4 °F - 35.6 °F 47% 29.89 in 10.0 mi North 5.8 mph - N/A   Mostly Cloudy